This is the latest recevied weather packets stored in our database for station/object SA3PJN-WX. If no packets are shown the sender has not sent any weather packets the latest 10 day(s).
| Time | Temp. | Humidity | Pressure | Rain* | Wind** | Luminosity | Snow |
|---|---|---|---|---|---|---|---|
| 1778228265 | 10° C | 49% | 977.8 hPa | - | - | - | - |
| 1778227965 | 10.56° C | 50% | 977.8 hPa | - | - | - | - |
| 1778227665 | 10° C | 48% | 977.5 hPa | - | - | - | - |
| 1778227366 | 10° C | 50% | 977.8 hPa | - | - | - | - |
| 1778227065 | 9.44° C | 50% | 977.6 hPa | - | - | - | - |
| 1778226736 | 9.44° C | 53% | 978.1 hPa | - | - | - | - |
| 1778226435 | 8.89° C | 56% | 978 hPa | - | - | - | - |
| 1778226135 | 7.78° C | 57% | 978.1 hPa | - | - | - | - |
| 1778225805 | 7.22° C | 57% | 978 hPa | - | - | - | - |
| 1778225505 | 7.22° C | 57% | 978 hPa | - | - | - | - |
| 1778225205 | 7.22° C | 55% | 977.6 hPa | - | - | - | - |
| 1778224905 | 7.78° C | 54% | 978 hPa | - | - | - | - |
| 1778224605 | 8.89° C | 53% | 978 hPa | - | - | - | - |
| 1778224275 | 8.89° C | 53% | 978 hPa | - | - | - | - |
| 1778223975 | 8.89° C | 53% | 978 hPa | - | - | - | - |
| 1778223645 | 8.89° C | 51% | 977.5 hPa | - | - | - | - |
| 1778223315 | 8.89° C | 50% | 978 hPa | - | - | - | - |
| 1778223015 | 9.44° C | 51% | 978.1 hPa | - | - | - | - |
| 1778222685 | 8.33° C | 53% | 978 hPa | - | - | - | - |
| 1778222385 | 8.33° C | 52% | 977.6 hPa | - | - | - | - |
| 1778222085 | 7.78° C | 54% | 978 hPa | - | - | - | - |
| 1778221785 | 8.33° C | 51% | 978 hPa | - | - | - | - |
| 1778221455 | 7.78° C | 52% | 978 hPa | - | - | - | - |
| 1778221155 | 7.78° C | 51% | 978 hPa | - | - | - | - |
| 1778220825 | 7.78° C | 53% | 978 hPa | - | - | - | - |
* Rain since midnight (hover to see other rain measurements)
** Current wind speed in m/s (hover to see current wind gust speed)